Погода Правая Хетта

Погода Правая Хетта : погода сейчас, прогноз погоды и архив. Всё, что Вы хотите узнать о погоде Правая Хетта!

Хотите узнать прогноз погоды Правая Хетта? Тогда Вам сюда: Погода Правая Хетта

Поиск расширенной информации на нашем сайте:

Другие новости

Новости СМИ2

Главная страница сайта

Новости сайта

03.07.2017

Напоминаем, что на нашем специализированном сайте Метеоцентр.Азия вы можете получить высокодетализированные автоматические прогнозы погоды по пунктам России, СНГ и мира в авиационном формате (включающие направление и скорость ветра, видимость, явления погоды, количество и форму облачности, нижнюю и верхнюю границу облачности).


Погода Правая Хетта - сегодня

Время (UTC), дата Ветер
(°,м/с) 
Видим.   Явления Облачность Т
(°С)
Тd
(°С)
f(%) Тe
(°С)
Pmin
(гПа)
dP
(гПа)
Po
(мм)
O2
(г/м3)
Тmin Tmax R s Состояние
почвы
15 21.09.17 010 (С) 2{10}  20000 м  в посл. час ливневой снег  9/4 300 м кучево-дожд., средняя 
[Cb cap|Ac trans]
-0.1 -2.8 82 -1  1022.1  1.3  762  307    +4.5  0.5     
18 21.09.17 360 (С) 2{10}  20000 м  {ливн. осадки}  6/0 средняя, верхняя 
[Ac trans|Ci fib]
-1.5 -2.6 92 -2  1022.5  0.3  762  309           
21 21.09.17 010 (С) 20000 м    9/6 800 м средняя 
[Sc|Ac trans]
-0.9 -2.5 89 -2  1023.4  763  309           
00 22.09.17 010 (С) 20000 м    10/6 600 м средняя 
[Sc|Ac trans]
-0.3 -3.8 77 -1  1024.3  0.9  763  308           
03 22.09.17 350 (С) 20000 м    4/4 300 м 
[Sc]
-0.9 -3.4 83 -2  1025.5  1.1  764  309  -2.7        влажная 
06 22.09.17 020 (С) 20000 м    10/8 540 м кучево-дожд., средняя 
[Cb cap|As trans]
+2.1 -3.2 68 +1  1026  0.6  765  306           
09 22.09.17 360 (С) 20000 м    10/10 600 м кучево-дожд. 
[Cb cap]
+2.8 -4.8 57 +1  1026.2  0.3  765  306           
12 22.09.17 330 (СЗ) 4000 м  слаб. снег  10/10 480 м 
[Sc]
+0.6 -0.4 93 1027.5  1.2  766  308           
15 22.09.17 320 (СЗ) 10 км  слаб. снег  10/8 450 м средняя 
[Sc|Ac As]
-0 -0.5 96 +1  1028.1  0.6  766  309    +3.1  0.2     
18 22.09.17 350 (С) 20000 м  {снег}  10/6 500 м средняя 
[Sc|Ac As]
-0.3 -0.8 96 1028.6  0.5  767  309           
21 22.09.17 340 (С) 20000 м    10/6 540 м средняя 
[Sc|Ac trans]
-0.3 -0.8 96 1029.3  0.6  767  309           
00 23.09.17 350 (С) 20000 м    9/9 540 м 
[Sc]
-1.2 -1.2 100 -1  1030.1  0.8  768  311           
03 23.09.17 010 (С) 20000 м    10/6 600 м верхняя 
[Sc|Cs]
+1.1 -0.9 86 +2  1030.7  0.6  768  308  -1.2    0.0    влажная 
06 23.09.17 050 (СВ) 20000 м    9/6 600 м средняя 
[Sc|Ac As]
+2.9 -4.6 58 +4  1031  0.3  768  307           
09 23.09.17 060 (СВ) 20000 м    9/6 800 м средняя 
[Sc|Ac trans]
+3.9 -4.6 54 +5  1030.8  0.1  768  306           
12 23.09.17 360 (С) 20000 м    8/4 600 м средняя, верхняя 
[Sc|Ac trans|Ci fib]
+2.8 -4.4 59 +4  1030.9  0.1  768  307           
15 23.09.17 тихо ()   20000 м    3/0 верхняя 
[Ci fib]
-2.7 -4.1 90 -3  1031.6  0.6  769  313    +4.3       
18 23.09.17 тихо ()   20000 м    4/0 средняя 
[Ac trans]
-3.9 -4 99 -4  1032.2  0.5  769  315           
21 23.09.17 230 (ЮЗ) 20000 м    6/0 средняя 
[Ac trans]
-1.6 -2.8 92 -1  1032  0.1  769  312           
00 24.09.17 250 (З) 20000 м    10/5 300 м средняя 
[Sc|Ac As]
-0.7 -2.7 86 -2  1031.9  0.1  769  311           
03 24.09.17 260 (З) 20000 м  {ливн. осадки}  10/4 600 м кучево-дожд., средняя 
[Cb cap|Ac und]
+0.5 -1.7 85 1031.3  -0.5  768  309  -4.4    0.0    сухая 
06 24.09.17 270 (З) 20000 м  {ливн. осадки}  10/5 600 м средняя 
[Sc|Ac und]
+4.1 +1.7 84 +4  1030.6  -0.5  768  305           
09 24.09.17 280 (З) 20000 м    10/3 600 м средняя 
[Sc|Ac und]
+5.5 +2.7 82 +5  1029.8  -0.8  767  303           
12 24.09.17 280 (З) 20000 м    10/3 600 м средняя 
[Sc|Ac und]
+5.4 +2.4 81 +5  1028.9  -0.9  767  303           
15 24.09.17 280 (З) 20000 м    10/10 1440 м 
[Sc|Ac und]
+3.9 +2.4 90 +5  1028  -1  766  304    +5.6       
Время (UTC), дата Ветер
(°,м/с) 
Видим.   Явления Облачность Т
(°С)
Тd
(°С)
f(%) Тe
(°С)
Pmin
(гПа)
dP
(гПа)
Po
(мм)
O2
(г/м3)
Тmin Tmax R s Состояние
почвы

Для получения пояснительной информации подведите курсор к названию столбца.

ПОГОДА Правая Хетта - архив

Всё, что Вы хотите узнать о погоде Правая Хетта - удобно и подробно!

Выберите нужную дату (начиная с 1 января 2015* года) и нажмите кнопку "Найти".
Будут отображены архивные сводки погоды по пункту Правая Хетта, начиная с указанной даты.


Отображать данные в формате CSV (для использования в таблицах Excel)


Внимание! Наш архив погоды предназначен исключительно для личного некоммерческого использования в познавательных целях. Если Вам необходимы официальные справки о состоянии погоды (для производственных, юридических, коммерческих и т.п. целей), обращайтесь в органы Росгидромета.

*Примечание: данная дата относится к архиву по метеостанциям СССР (Россия, СНГ, Балтия).
Архив по метеостанциям Зарубежной Европы и Азии (кроме Китая) хранится 10 дней, по другим регионам земного шара (Китай, Африка, Америка, Австралия, Океания) - 1 день.

Правая Хетта - район местоположения метеостанции


Название, широта, долгота, высота метеостанции:
Правая Хетта 65.9°ш. 74.5°д. 54 м над ур. моря [Российская Федерация]

Дополнительная информация

В oтличие oт бoльшинства пoгoдных сайтoв мы публикуем пoдрoбную метеoинфoрмацию в детальнoм прoфессиoнальнoм фoрмате.

Характеристики температуры и влажнoсти вoздуха измеряются на высoте 2 м в тени вдали oт зданий и деревьев.
Скoрoсть ветра измеряется на высoте 10 м (на урoвне рoста челoвека скoрoсть ветра ниже в 1.5-2 раза). Если метеoстанция нахoдится в гoрoде или в лесу, тo скoрoсть ветра занижена на 2-4 м/с пo сравнению с oткрытым местoм. Скoрoсть ветра над акватoриями крупных рек и oзёр, а также на вершинах хoлмoв на 2-5 м/с выше, чем в oбычных услoвиях.
Атмoсфернoе давление в разных тoчках местнoсти мoжет значительнo oтличаться oт давления на метеoстанции, в зависимoсти oт услoвий рельефа (при пoдъёме на 10 м давление пoнижается примернo на 1 мм рт.ст.).